Station Historical Data
Daily Summary for June 19, 2017 Units:  Metric    English   Both
« Previous Day
Next Day »
Daily Weekly Monthly Yearly Custom
  High: Low: Average:
Temperature: 26 °C 19.2 °C 22 °C
Dew Point: 19.1 °C 14.9 °C 16.9 °C
Humidity: 92% 52% 74%
Wind Speed: 22.5km/h 0km/h 6.9km/h
Wind Gust: 35.4km/h - -
Wind- - SW
Pressure: 1008.4 hPa 1003.9 hPa -
Precipitation: 0 mm    
Historical Graphs
 
 
Tabular Data for June 19, 2017
Time Temperature Dew Point Pressure Wind Wind Speed Wind Gust Humidity Rainfall Rate (Hourly)
00:04 21.2 °C 18.9 °C 1003.9 hPa West 4.8 km/h 9.7 km/h 87% 0 mm
00:09 21.2 °C 18.9 °C 1004.3 hPa West 3.2 km/h 6.4 km/h 87% 0 mm
00:14 21.1 °C 19.1 °C 1004.3 hPa WSW 4.8 km/h 9.7 km/h 88% 0 mm
00:19 21.1 °C 18.9 °C 1004.3 hPa WNW 4.8 km/h 12.9 km/h 87% 0 mm
00:29 21.1 °C 19 °C 1004.3 hPa West 4.8 km/h 11.3 km/h 88% 0 mm
00:34 21 °C 18.9 °C 1004.6 hPa West 1.6 km/h 12.9 km/h 88% 0 mm
00:39 20.9 °C 18.9 °C 1004.6 hPa WSW 1.6 km/h 9.7 km/h 88% 0 mm
00:44 20.9 °C 18.9 °C 1004.3 hPa WSW 3.2 km/h 6.4 km/h 88% 0 mm
00:49 20.9 °C 18.8 °C 1004.6 hPa Calm   8 km/h 88% 0 mm
00:54 20.9 °C 18.8 °C 1004.6 hPa WSW 4.8 km/h 4.8 km/h 88% 0 mm
00:59 20.8 °C 18.8 °C 1004.6 hPa WSW 1.6 km/h 4.8 km/h 88% 0 mm
01:04 20.8 °C 18.8 °C 1004.6 hPa SW 1.6 km/h 4.8 km/h 88% 0 mm
01:09 20.8 °C 18.9 °C 1004.6 hPa SW 1.6 km/h 6.4 km/h 89% 0 mm
01:14 20.8 °C 18.9 °C 1004.3 hPa SW 1.6 km/h 6.4 km/h 89% 0 mm
01:19 20.8 °C 18.9 °C 1004.6 hPa SW 3.2 km/h 8 km/h 89% 0 mm
01:24 20.8 °C 18.9 °C 1004.6 hPa SSW 4.8 km/h 8 km/h 89% 0 mm
01:29 20.8 °C 18.9 °C 1005 hPa SW 3.2 km/h 8 km/h 89% 0 mm
01:34 20.8 °C 18.8 °C 1005 hPa SW 3.2 km/h 8 km/h 88% 0 mm
01:39 20.9 °C 18.8 °C 1005 hPa WSW 1.6 km/h 9.7 km/h 88% 0 mm
01:40 20.9 °C 18.8 °C 1005 hPa SW 3.2 km/h 9.7 km/h 88% 0 mm
01:44 20.9 °C 18.9 °C 1005 hPa WSW 4.8 km/h 9.7 km/h 88% 0 mm
01:49 20.9 °C 18.8 °C 1005 hPa SW 6.4 km/h 8 km/h 88% 0 mm
01:54 20.9 °C 18.8 °C 1005 hPa SW 4.8 km/h 9.7 km/h 88% 0 mm
01:59 20.8 °C 18.8 °C 1004.6 hPa SW 3.2 km/h 9.7 km/h 88% 0 mm
02:04 20.8 °C 18.8 °C 1004.6 hPa SW 3.2 km/h 9.7 km/h 88% 0 mm
02:09 20.8 °C 18.8 °C 1004.6 hPa WSW 1.6 km/h 4.8 km/h 88% 0 mm
02:14 20.8 °C 18.8 °C 1005 hPa WSW 1.6 km/h 4.8 km/h 88% 0 mm
02:19 20.8 °C 18.8 °C 1004.6 hPa SW 3.2 km/h 9.7 km/h 88% 0 mm
02:24 20.8 °C 18.8 °C 1004.6 hPa SW 3.2 km/h 9.7 km/h 88% 0 mm
02:29 20.8 °C 18.8 °C 1004.6 hPa SSW 4.8 km/h 9.7 km/h 88% 0 mm
02:34 20.8 °C 18.8 °C 1004.6 hPa SW 3.2 km/h 9.7 km/h 88% 0 mm
02:39 20.8 °C 18.8 °C 1004.6 hPa SW 3.2 km/h 11.3 km/h 88% 0 mm
02:44 20.8 °C 18.8 °C 1004.6 hPa SW 6.4 km/h 11.3 km/h 88% 0 mm
02:49 20.8 °C 18.8 °C 1004.6 hPa SW 1.6 km/h 9.7 km/h 88% 0 mm
02:54 20.8 °C 18.8 °C 1004.6 hPa WSW 4.8 km/h 6.4 km/h 88% 0 mm
02:59 20.8 °C 18.9 °C 1004.6 hPa SW 3.2 km/h 8 km/h 89% 0 mm
03:04 20.8 °C 18.9 °C 1005 hPa SW 3.2 km/h 8 km/h 89% 0 mm
03:09 20.8 °C 18.9 °C 1004.6 hPa SW 3.2 km/h 8 km/h 89% 0 mm
03:14 20.8 °C 18.9 °C 1004.6 hPa SW 3.2 km/h 11.3 km/h 89% 0 mm
03:19 20.8 °C 18.9 °C 1004.6 hPa SSW 4.8 km/h 12.9 km/h 89% 0 mm
03:24 20.8 °C 18.9 °C 1005 hPa WSW 3.2 km/h 8 km/h 89% 0 mm
03:29 20.8 °C 18.9 °C 1004.6 hPa SW 4.8 km/h 9.7 km/h 89% 0 mm
03:34 20.8 °C 18.9 °C 1005 hPa SW 6.4 km/h 12.9 km/h 89% 0 mm
03:39 20.8 °C 18.9 °C 1004.6 hPa SW 4.8 km/h 12.9 km/h 89% 0 mm
03:44 20.8 °C 18.9 °C 1005 hPa SW 4.8 km/h 12.9 km/h 89% 0 mm
03:49 20.8 °C 18.9 °C 1005 hPa SW 4.8 km/h 11.3 km/h 89% 0 mm
03:54 20.8 °C 18.9 °C 1005 hPa WSW 3.2 km/h 9.7 km/h 89% 0 mm
03:59 20.8 °C 18.9 °C 1005 hPa WSW 3.2 km/h 6.4 km/h 89% 0 mm
04:04 20.7 °C 18.8 °C 1005 hPa WSW 3.2 km/h 6.4 km/h 89% 0 mm
04:09 20.7 °C 18.8 °C 1005 hPa SW 3.2 km/h 6.4 km/h 89% 0 mm
04:14 20.7 °C 18.8 °C 1005 hPa South 3.2 km/h 9.7 km/h 89% 0 mm
04:19 20.6 °C 18.8 °C 1005 hPa SW 4.8 km/h 8 km/h 90% 0 mm
04:24 20.5 °C 18.8 °C 1005 hPa SW 3.2 km/h 6.4 km/h 90% 0 mm
04:29 20.4 °C 18.7 °C 1005 hPa SW 1.6 km/h 8 km/h 90% 0 mm
04:34 20.4 °C 18.7 °C 1005.3 hPa SW 3.2 km/h 9.7 km/h 90% 0 mm
04:39 20.4 °C 18.7 °C 1005.3 hPa SW 4.8 km/h 9.7 km/h 90% 0 mm
04:44 20.4 °C 18.7 °C 1005.3 hPa SW 4.8 km/h 9.7 km/h 90% 0 mm
04:49 20.3 °C 18.6 °C 1005.3 hPa SW 3.2 km/h 9.7 km/h 90% 0 mm
04:54 20.2 °C 18.6 °C 1005.6 hPa WSW 3.2 km/h 8 km/h 90% 0 mm
04:59 20.2 °C 18.7 °C 1005.6 hPa SW 4.8 km/h 6.4 km/h 91% 0 mm
05:04 20.1 °C 18.6 °C 1005.6 hPa WSW 3.2 km/h 8 km/h 91% 0 mm
05:09 20 °C 18.5 °C 1005.3 hPa Calm   4.8 km/h 91% 0 mm
05:14 19.9 °C 18.4 °C 1005.6 hPa WSW 1.6 km/h 6.4 km/h 91% 0 mm
05:19 19.8 °C 18.3 °C 1005.6 hPa Calm   4.8 km/h 91% 0 mm
05:24 19.8 °C 18.3 °C 1006 hPa SSW 3.2 km/h 4.8 km/h 91% 0 mm
05:29 19.7 °C 18.2 °C 1005.6 hPa Calm   4.8 km/h 91% 0 mm
05:34 19.7 °C 18.2 °C 1006 hPa SSW 1.6 km/h 4.8 km/h 91% 0 mm
05:39 19.6 °C 18.3 °C 1006 hPa SW 1.6 km/h 6.4 km/h 92% 0 mm
05:44 19.7 °C 18.3 °C 1006.3 hPa SW 1.6 km/h 8 km/h 92% 0 mm
05:49 19.7 °C 18.3 °C 1006.3 hPa SW 3.2 km/h 8 km/h 92% 0 mm
05:54 19.7 °C 18.3 °C 1006.3 hPa SW 1.6 km/h 4.8 km/h 92% 0 mm
05:59 19.7 °C 18.3 °C 1006 hPa SSW 3.2 km/h 6.4 km/h 92% 0 mm
06:04 19.7 °C 18.3 °C 1006.3 hPa Calm   6.4 km/h 92% 0 mm
06:09 19.7 °C 18.3 °C 1006.3 hPa Calm   4.8 km/h 92% 0 mm
06:14 19.7 °C 18.3 °C 1006.3 hPa SW 1.6 km/h 4.8 km/h 92% 0 mm
06:19 19.7 °C 18.3 °C 1006.3 hPa Calm   4.8 km/h 92% 0 mm
06:24 19.7 °C 18.3 °C 1006.7 hPa SW 1.6 km/h 6.4 km/h 92% 0 mm
06:29 19.7 °C 18.4 °C 1006.7 hPa Calm   6.4 km/h 92% 0 mm
06:34 19.7 °C 18.2 °C 1006.3 hPa WSW 1.6 km/h 6.4 km/h 91% 0 mm
06:39 19.7 °C 18.2 °C 1006.3 hPa Calm     91% 0 mm
06:44 19.7 °C 18.2 °C 1006.7 hPa Calm     91% 0 mm
06:49 19.7 °C 18.2 °C 1006.3 hPa Calm     91% 0 mm
06:54 19.8 °C 18.1 °C 1006.3 hPa Calm     90% 0 mm
06:59 19.8 °C 17.9 °C 1006.3 hPa Calm     89% 0 mm
07:04 19.9 °C 17.9 °C 1006.3 hPa Calm     88% 0 mm
07:09 20.1 °C 18 °C 1006.7 hPa Calm     88% 0 mm
07:14 20.2 °C 17.9 °C 1007 hPa SW 1.6 km/h 6.4 km/h 87% 0 mm
07:19 20.3 °C 18.1 °C 1007 hPa Calm   6.4 km/h 87% 0 mm
07:24 20.3 °C 17.9 °C 1007 hPa SW 1.6 km/h 6.4 km/h 86% 0 mm
07:29 20.4 °C 17.9 °C 1007 hPa SSW 3.2 km/h 6.4 km/h 86% 0 mm
07:34 20.4 °C 17.8 °C 1006.7 hPa SSW 3.2 km/h 8 km/h 85% 0 mm
07:39 20.4 °C 17.8 °C 1006.7 hPa SSW 1.6 km/h 8 km/h 85% 0 mm
07:44 20.4 °C 17.8 °C 1006.7 hPa Calm   6.4 km/h 85% 0 mm
07:49 20.5 °C 17.9 °C 1006.7 hPa South 4.8 km/h 4.8 km/h 85% 0 mm
07:54 20.5 °C 17.9 °C 1007 hPa SSW 1.6 km/h 4.8 km/h 85% 0 mm
07:59 20.6 °C 17.8 °C 1007 hPa SW 6.4 km/h 6.4 km/h 84% 0 mm
08:04 20.6 °C 17.8 °C 1007 hPa SW 3.2 km/h 6.4 km/h 84% 0 mm
08:09 20.8 °C 17.6 °C 1007 hPa WSW 3.2 km/h 8 km/h 82% 0 mm
08:14 21 °C 17.8 °C 1007 hPa WSW 3.2 km/h 8 km/h 82% 0 mm
08:19 20.9 °C 17.3 °C 1007 hPa WSW 3.2 km/h 9.7 km/h 80% 0 mm
08:24 21.3 °C 17.9 °C 1007 hPa WSW 6.4 km/h 11.3 km/h 81% 0 mm
08:29 21.7 °C 18.3 °C 1007 hPa WSW 4.8 km/h 11.3 km/h 81% 0 mm
08:34 21.8 °C 18.2 °C 1007 hPa WSW 6.4 km/h 12.9 km/h 80% 0 mm
08:39 21.9 °C 17.9 °C 1007 hPa WSW 8 km/h 11.3 km/h 78% 0 mm
08:44 22.2 °C 17.9 °C 1007.3 hPa WSW 4.8 km/h 14.5 km/h 77% 0 mm
08:49 22.3 °C 18.1 °C 1007.3 hPa WSW 6.4 km/h 14.5 km/h 77% 0 mm
08:54 22.6 °C 18.2 °C 1007.3 hPa SW 6.4 km/h 12.9 km/h 76% 0 mm
08:59 22.6 °C 17.7 °C 1007.3 hPa SW 6.4 km/h 16.1 km/h 74% 0 mm
09:04 22.6 °C 17.3 °C 1007.3 hPa SW 8 km/h 16.1 km/h 72% 0 mm
09:09 22.7 °C 17.3 °C 1007 hPa WSW 6.4 km/h 17.7 km/h 72% 0 mm
09:14 22.7 °C 16.9 °C 1007.3 hPa SW 11.3 km/h 17.7 km/h 70% 0 mm
09:19 22.8 °C 17 °C 1007 hPa South 9.7 km/h 14.5 km/h 70% 0 mm
09:24 22.5 °C 16.8 °C 1007 hPa SW 8 km/h 14.5 km/h 70% 0 mm
09:29 22.7 °C 17.2 °C 1007.3 hPa SW 8 km/h 14.5 km/h 71% 0 mm
09:34 23 °C 16.6 °C 1007 hPa SW 8 km/h 14.5 km/h 67% 0 mm
09:39 23.2 °C 16.8 °C 1007 hPa SW 8 km/h 14.5 km/h 67% 0 mm
09:44 23.6 °C 16.8 °C 1007 hPa WSW 4.8 km/h 16.1 km/h 66% 0 mm
09:49 23.6 °C 16.7 °C 1007.3 hPa SW 11.3 km/h 12.9 km/h 65% 0 mm
09:54 23.4 °C 16.5 °C 1007.3 hPa SW 8 km/h 19.3 km/h 65% 0 mm
09:59 23.2 °C 16.4 °C 1007.3 hPa SSW 4.8 km/h 16.1 km/h 66% 0 mm
10:04 23.3 °C 16.6 °C 1007.3 hPa West 8 km/h 19.3 km/h 66% 0 mm
10:09 23.3 °C 16.4 °C 1007.3 hPa SW 11.3 km/h 17.7 km/h 65% 0 mm
10:14 23.1 °C 16.1 °C 1007.3 hPa West 8 km/h 14.5 km/h 65% 0 mm
10:19 22.8 °C 16.6 °C 1007.3 hPa SSW 11.3 km/h 17.7 km/h 68% 0 mm
10:24 22.8 °C 16.8 °C 1007.3 hPa SW 8 km/h 17.7 km/h 69% 0 mm
10:29 23.2 °C 16.8 °C 1007.3 hPa SW 8 km/h 17.7 km/h 67% 0 mm
10:34 23.8 °C 16.8 °C 1007.3 hPa SW 6.4 km/h 16.1 km/h 65% 0 mm
10:39 23.9 °C 16.7 °C 1007.3 hPa WSW 6.4 km/h 12.9 km/h 64% 0 mm
10:44 23.4 °C 15.7 °C 1007.3 hPa West 8 km/h 17.7 km/h 62% 0 mm
10:49 23.2 °C 16.2 °C 1007.3 hPa West 6.4 km/h 17.7 km/h 65% 0 mm
10:54 23.6 °C 16.6 °C 1007.3 hPa WSW 8 km/h 17.7 km/h 65% 0 mm
10:59 23.6 °C 16.6 °C 1007.3 hPa WSW 8 km/h 20.9 km/h 65% 0 mm
11:04 23.5 °C 16.6 °C 1007.3 hPa West 6.4 km/h 20.9 km/h 65% 0 mm
11:09 23.6 °C 16.2 °C 1007.3 hPa SSW 9.7 km/h 14.5 km/h 63% 0 mm
11:14 23.6 °C 16.2 °C 1007.3 hPa SW 8 km/h 14.5 km/h 63% 0 mm
11:19 24.1 °C 16.9 °C 1007.3 hPa SW 16.1 km/h 20.9 km/h 64% 0 mm
11:24 24.3 °C 16.8 °C 1007.3 hPa WSW 9.7 km/h 20.9 km/h 63% 0 mm
11:29 24.6 °C 16.8 °C 1007.3 hPa SW 8 km/h 16.1 km/h 62% 0 mm
11:34 24.5 °C 15.7 °C 1007.3 hPa SW 9.7 km/h 16.1 km/h 58% 0 mm
11:39 24.4 °C 16.2 °C 1007.3 hPa West 8 km/h 19.3 km/h 60% 0 mm
11:44 24.5 °C 15.4 °C 1007.3 hPa SW 8 km/h 16.1 km/h 57% 0 mm
11:49 24.8 °C 15.9 °C 1007.3 hPa SW 9.7 km/h 17.7 km/h 58% 0 mm
11:54 24.8 °C 17 °C 1007.3 hPa SW 8 km/h 17.7 km/h 62% 0 mm
11:59 25.1 °C 16.3 °C 1007.3 hPa SW 8 km/h 17.7 km/h 58% 0 mm
12:04 24.8 °C 15.7 °C 1007.3 hPa SW 9.7 km/h 14.5 km/h 57% 0 mm
12:09 24.8 °C 15.1 °C 1007.3 hPa SW 11.3 km/h 27.4 km/h 55% 0 mm
12:14 24.3 °C 15.5 °C 1007.3 hPa WNW 9.7 km/h 17.7 km/h 58% 0 mm
12:19 24.1 °C 15.3 °C 1007.3 hPa WSW 11.3 km/h 17.7 km/h 58% 0 mm
12:24 24.3 °C 15.5 °C 1007.7 hPa WSW 11.3 km/h 19.3 km/h 58% 0 mm
12:29 24.3 °C 15.2 °C 1007.7 hPa SW 9.7 km/h 17.7 km/h 57% 0 mm
12:34 24.7 °C 15.6 °C 1007.7 hPa SSW 11.3 km/h 20.9 km/h 57% 0 mm
12:39 25.1 °C 16 °C 1007.7 hPa WSW 3.2 km/h 16.1 km/h 57% 0 mm
12:44 24.8 °C 15.4 °C 1007.3 hPa SSW 8 km/h 19.3 km/h 56% 0 mm
12:49 25.2 °C 15.6 °C 1007.3 hPa SW 9.7 km/h 19.3 km/h 55% 0 mm
12:54 25.4 °C 15.2 °C 1007.3 hPa WSW 8 km/h 16.1 km/h 53% 0 mm
12:59 25.7 °C 15.9 °C 1007.3 hPa West 8 km/h 19.3 km/h 55% 0 mm
13:04 25.1 °C 15.2 °C 1007.3 hPa WSW 9.7 km/h 20.9 km/h 54% 0 mm
13:09 25.4 °C 15.1 °C 1007.3 hPa WSW 9.7 km/h 20.9 km/h 53% 0 mm
13:14 25.3 °C 15.3 °C 1007.3 hPa SSW 12.9 km/h 19.3 km/h 54% 0 mm
13:19 24.8 °C 15.2 °C 1007.3 hPa WSW 11.3 km/h 25.7 km/h 55% 0 mm
13:24 25.1 °C 15.4 °C 1007 hPa West 9.7 km/h 20.9 km/h 55% 0 mm
13:29 25.2 °C 15.5 °C 1007 hPa West 12.9 km/h 17.7 km/h 55% 0 mm
13:34 25.1 °C 15.2 °C 1007 hPa SSW 6.4 km/h 16.1 km/h 54% 0 mm
13:39 25.1 °C 15.1 °C 1007 hPa West 6.4 km/h 20.9 km/h 54% 0 mm
13:44 25.2 °C 16.1 °C 1007 hPa WSW 9.7 km/h 20.9 km/h 57% 0 mm
13:49 25.3 °C 15.7 °C 1006.7 hPa WSW 9.7 km/h 20.9 km/h 55% 0 mm
13:54 25.4 °C 15.7 °C 1007 hPa WSW 11.3 km/h 20.9 km/h 55% 0 mm
13:59 25.7 °C 17.6 °C 1006.7 hPa WSW 9.7 km/h 17.7 km/h 61% 0 mm
14:04 25.8 °C 16.1 °C 1006.7 hPa WSW 3.2 km/h 14.5 km/h 55% 0 mm
14:09 26 °C 15.9 °C 1006.7 hPa WNW 8 km/h 17.7 km/h 54% 0 mm
14:14 25.6 °C 14.9 °C 1006.7 hPa WSW 6.4 km/h 16.1 km/h 52% 0 mm
14:19 25.3 °C 15.9 °C 1006.7 hPa WSW 9.7 km/h 20.9 km/h 56% 0 mm
14:24 25.3 °C 16.2 °C 1006.7 hPa SW 9.7 km/h 22.5 km/h 57% 0 mm
14:29 25.6 °C 16.4 °C 1006.3 hPa West 6.4 km/h 20.9 km/h 57% 0 mm
14:34 25.5 °C 15.5 °C 1006.3 hPa West 12.9 km/h 19.3 km/h 54% 0 mm
14:39 25.4 °C 16 °C 1006.3 hPa SSW 9.7 km/h 20.9 km/h 56% 0 mm
14:44 25.9 °C 17.3 °C 1006.3 hPa WSW 9.7 km/h 20.9 km/h 59% 0 mm
14:49 25.9 °C 16.8 °C 1006.3 hPa WSW 9.7 km/h 17.7 km/h 57% 0 mm
14:54 24.8 °C 15.2 °C 1006 hPa West 9.7 km/h 25.7 km/h 55% 0 mm
14:59 24.3 °C 15.5 °C 1006.3 hPa WSW 11.3 km/h 25.7 km/h 58% 0 mm
15:04 24.1 °C 15.8 °C 1006.3 hPa WSW 12.9 km/h 17.7 km/h 60% 0 mm
15:09 24.2 °C 15.7 °C 1006.3 hPa WSW 14.5 km/h 19.3 km/h 59% 0 mm
15:14 23.8 °C 15.1 °C 1006.3 hPa WSW 9.7 km/h 20.9 km/h 58% 0 mm
15:19 23.4 °C 15.7 °C 1006.3 hPa WSW 9.7 km/h 20.9 km/h 62% 0 mm
15:24 23.2 °C 15.5 °C 1006.3 hPa WSW 9.7 km/h 20.9 km/h 62% 0 mm
15:29 22.9 °C 15.4 °C 1006.3 hPa SW 11.3 km/h 24.1 km/h 63% 0 mm
15:34 22.7 °C 15.7 °C 1006.3 hPa SW 11.3 km/h 24.1 km/h 65% 0 mm
15:39 22.6 °C 15.7 °C 1006.3 hPa SW 9.7 km/h 19.3 km/h 65% 0 mm
15:44 22.5 °C 15.8 °C 1006.3 hPa WSW 8 km/h 17.7 km/h 66% 0 mm
15:49 22.4 °C 15.6 °C 1006.3 hPa WSW 4.8 km/h 16.1 km/h 65% 0 mm
15:54 22.4 °C 15.9 °C 1006 hPa West 1.6 km/h 12.9 km/h 67% 0 mm
15:59 22.2 °C 15.8 °C 1006 hPa SSW 11.3 km/h 17.7 km/h 67% 0 mm
16:04 22.2 °C 15.8 °C 1006 hPa WSW 4.8 km/h 16.1 km/h 67% 0 mm
16:09 22.2 °C 15.8 °C 1006 hPa WSW 11.3 km/h 17.7 km/h 67% 0 mm
16:14 22.1 °C 15.7 °C 1006.3 hPa SW 9.7 km/h 22.5 km/h 67% 0 mm
16:19 22.1 °C 15.9 °C 1006.3 hPa SW 9.7 km/h 22.5 km/h 68% 0 mm
16:24 22.1 °C 15.9 °C 1006.3 hPa SW 9.7 km/h 25.7 km/h 68% 0 mm
16:29 22.1 °C 16.1 °C 1006.3 hPa SW 11.3 km/h 25.7 km/h 69% 0 mm
16:34 22.3 °C 16.4 °C 1006.3 hPa SW 11.3 km/h 22.5 km/h 69% 0 mm
16:39 22.3 °C 16.1 °C 1006.3 hPa SW 9.7 km/h 24.1 km/h 68% 0 mm
16:44 22.5 °C 16.3 °C 1006.3 hPa SW 11.3 km/h 24.1 km/h 68% 0 mm
16:49 22.8 °C 16.1 °C 1006.3 hPa SW 9.7 km/h 22.5 km/h 66% 0 mm
16:54 23.3 °C 16.1 °C 1006 hPa SW 11.3 km/h 24.1 km/h 64% 0 mm
16:59 23.5 °C 16.6 °C 1006 hPa West 20.9 km/h 22.5 km/h 65% 0 mm
17:04 23.3 °C 16.4 °C 1006 hPa WSW 12.9 km/h 24.1 km/h 65% 0 mm
17:09 23.5 °C 16.8 °C 1006 hPa WSW 8 km/h 22.5 km/h 66% 0 mm
17:14 23.8 °C 16.1 °C 1006 hPa WSW 9.7 km/h 22.5 km/h 62% 0 mm
17:19 24.1 °C 16.3 °C 1006 hPa WSW 9.7 km/h 20.9 km/h 62% 0 mm
17:24 24.1 °C 16.3 °C 1006 hPa WSW 8 km/h 24.1 km/h 62% 0 mm
17:29 23.9 °C 16.4 °C 1006 hPa WSW 4.8 km/h 20.9 km/h 63% 0 mm
17:34 24.1 °C 16.3 °C 1006.3 hPa SSW 8 km/h 19.3 km/h 62% 0 mm
17:39 23.7 °C 15.8 °C 1006.3 hPa West 8 km/h 32.2 km/h 61% 0 mm
17:44 23.7 °C 16 °C 1006.3 hPa WSW 12.9 km/h 32.2 km/h 62% 0 mm
17:49 23.5 °C 16.1 °C 1006.3 hPa WSW 12.9 km/h 25.7 km/h 63% 0 mm
17:54 23.1 °C 16.1 °C 1006.3 hPa WSW 12.9 km/h 25.7 km/h 65% 0 mm
17:59 22.8 °C 16.1 °C 1006.3 hPa WSW 12.9 km/h 24.1 km/h 66% 0 mm
18:04 23 °C 16.1 °C 1006 hPa WSW 12.9 km/h 25.7 km/h 65% 0 mm
18:09 23.3 °C 15.8 °C 1006.3 hPa SW 16.1 km/h 20.9 km/h 63% 0 mm
18:14 23.3 °C 15.6 °C 1006 hPa West 8 km/h 27.4 km/h 62% 0 mm
18:19 23.3 °C 15.1 °C 1006 hPa SW 16.1 km/h 27.4 km/h 60% 0 mm
18:24 23.3 °C 15.3 °C 1006 hPa West 11.3 km/h 24.1 km/h 61% 0 mm
18:29 23.3 °C 15.4 °C 1006.3 hPa SW 11.3 km/h 27.4 km/h 61% 0 mm
18:34 23.3 °C 15.6 °C 1006.3 hPa WSW 12.9 km/h 35.4 km/h 62% 0 mm
18:39 23.1 °C 15.7 °C 1006.3 hPa WNW 6.4 km/h 24.1 km/h 63% 0 mm
18:44 23 °C 15.8 °C 1006.3 hPa WSW 11.3 km/h 24.1 km/h 64% 0 mm
18:49 23.1 °C 16.4 °C 1006.7 hPa WSW 11.3 km/h 22.5 km/h 66% 0 mm
18:54 23.1 °C 15.9 °C 1006.7 hPa WSW 11.3 km/h 25.7 km/h 64% 0 mm
18:59 23.1 °C 15.9 °C 1006.7 hPa WSW 11.3 km/h 25.7 km/h 64% 0 mm
19:04 23 °C 15.6 °C 1006.7 hPa WSW 12.9 km/h 24.1 km/h 63% 0 mm
19:09 22.7 °C 15.6 °C 1006.3 hPa SW 12.9 km/h 25.7 km/h 64% 0 mm
19:14 22.6 °C 15.7 °C 1006.7 hPa SW 12.9 km/h 25.7 km/h 65% 0 mm
19:19 22.3 °C 15.7 °C 1006.7 hPa SSW 11.3 km/h 25.7 km/h 66% 0 mm
19:24 22.1 °C 15.7 °C 1006.7 hPa SW 14.5 km/h 20.9 km/h 67% 0 mm
19:29 21.9 °C 15.8 °C 1006.7 hPa WSW 9.7 km/h 22.5 km/h 68% 0 mm
19:34 21.9 °C 15.8 °C 1006.7 hPa WSW 11.3 km/h 25.7 km/h 68% 0 mm
19:39 21.9 °C 15.7 °C 1006.7 hPa SW 9.7 km/h 27.4 km/h 68% 0 mm
19:44 21.9 °C 15.7 °C 1007 hPa WSW 11.3 km/h 27.4 km/h 68% 0 mm
19:49 21.9 °C 15.6 °C 1007 hPa SW 9.7 km/h 20.9 km/h 67% 0 mm
19:54 22 °C 15.3 °C 1007 hPa SW 9.7 km/h 27.4 km/h 66% 0 mm
19:59 22.1 °C 15.4 °C 1007 hPa WSW 12.9 km/h 29 km/h 66% 0 mm
20:04 22 °C 15.3 °C 1007 hPa WSW 22.5 km/h 24.1 km/h 66% 0 mm
20:09 21.9 °C 15.2 °C 1007 hPa West 6.4 km/h 25.7 km/h 66% 0 mm
20:14 21.7 °C 15.3 °C 1007 hPa WSW 11.3 km/h 25.7 km/h 67% 0 mm
20:19 21.6 °C 15.4 °C 1007 hPa WSW 11.3 km/h 19.3 km/h 68% 0 mm
20:24 21.4 °C 15.5 °C 1007 hPa WSW 9.7 km/h 19.3 km/h 69% 0 mm
20:29 21.3 °C 15.8 °C 1007 hPa WSW 9.7 km/h 19.3 km/h 71% 0 mm
20:34 21.2 °C 15.9 °C 1007 hPa WSW 8 km/h 17.7 km/h 72% 0 mm
20:39 21 °C 16 °C 1006.7 hPa SW 8 km/h 12.9 km/h 73% 0 mm
20:44 20.9 °C 16.1 °C 1006.7 hPa WSW 8 km/h 12.9 km/h 74% 0 mm
20:49 20.8 °C 16.2 °C 1006.7 hPa SW 1.6 km/h 11.3 km/h 75% 0 mm
20:54 20.7 °C 16.1 °C 1006.7 hPa SW 3.2 km/h 14.5 km/h 75% 0 mm
20:59 20.6 °C 16.2 °C 1006.7 hPa SW 4.8 km/h 8 km/h 76% 0 mm
21:04 20.4 °C 16.3 °C 1007 hPa WNW 8 km/h 9.7 km/h 77% 0 mm
21:09 20.4 °C 16.2 °C 1007 hPa South 8 km/h 9.7 km/h 77% 0 mm
21:14 20.4 °C 16.2 °C 1007 hPa SW 4.8 km/h 9.7 km/h 77% 0 mm
21:19 20.3 °C 16.4 °C 1007 hPa SW 4.8 km/h 12.9 km/h 78% 0 mm
21:24 20.3 °C 16.3 °C 1007 hPa SW 4.8 km/h 12.9 km/h 78% 0 mm
21:29 20.2 °C 16.4 °C 1007 hPa SW 4.8 km/h 11.3 km/h 79% 0 mm
21:34 20.1 °C 16.3 °C 1007.3 hPa SW 3.2 km/h 6.4 km/h 79% 0 mm
21:39 20 °C 16.4 °C 1007.3 hPa SW 3.2 km/h 6.4 km/h 80% 0 mm
21:44 19.9 °C 16.6 °C 1007.3 hPa SSW 4.8 km/h 9.7 km/h 81% 0 mm
21:49 19.9 °C 16.6 °C 1007.3 hPa SW 3.2 km/h 11.3 km/h 81% 0 mm
21:54 19.9 °C 16.6 °C 1007.3 hPa SW 4.8 km/h 11.3 km/h 81% 0 mm
21:59 20 °C 16.6 °C 1007.7 hPa SW 4.8 km/h 16.1 km/h 81% 0 mm
22:04 20.1 °C 16.7 °C 1007.3 hPa SSW 9.7 km/h 19.3 km/h 81% 0 mm
22:09 20.1 °C 16.7 °C 1007.3 hPa SSW 3.2 km/h 14.5 km/h 81% 0 mm
22:14 20.1 °C 16.7 °C 1007.7 hPa SW 9.7 km/h 12.9 km/h 81% 0 mm
22:19 20.1 °C 16.6 °C 1007.7 hPa SW 6.4 km/h 19.3 km/h 80% 0 mm
22:24 20.2 °C 16.6 °C 1007.7 hPa SW 8 km/h 19.3 km/h 80% 0 mm
22:29 20.3 °C 16.5 °C 1007.7 hPa SW 6.4 km/h 16.1 km/h 79% 0 mm
22:34 20.4 °C 16.6 °C 1007.7 hPa SW 9.7 km/h 17.7 km/h 79% 0 mm
22:39 20.5 °C 16.7 °C 1007.7 hPa SW 8 km/h 24.1 km/h 79% 0 mm
22:44 20.4 °C 16.5 °C 1007.7 hPa WSW 8 km/h 19.3 km/h 78% 0 mm
22:49 20.4 °C 16.4 °C 1007.7 hPa SW 9.7 km/h 19.3 km/h 78% 0 mm
22:54 20.3 °C 16.1 °C 1007.7 hPa SW 9.7 km/h 17.7 km/h 77% 0 mm
22:59 20.2 °C 16.1 °C 1007.7 hPa SW 9.7 km/h 19.3 km/h 77% 0 mm
23:04 20.2 °C 16 °C 1007.7 hPa SW 8 km/h 19.3 km/h 77% 0 mm
23:09 20.1 °C 15.7 °C 1008 hPa SW 8 km/h 25.7 km/h 76% 0 mm
23:14 20.1 °C 15.5 °C 1008 hPa SW 6.4 km/h 17.7 km/h 75% 0 mm
23:19 20.1 °C 15.5 °C 1007.7 hPa SW 8 km/h 17.7 km/h 75% 0 mm
23:24 19.9 °C 15.2 °C 1007.7 hPa SW 6.4 km/h 14.5 km/h 74% 0 mm
23:29 19.8 °C 15.1 °C 1007.7 hPa West 9.7 km/h 25.7 km/h 74% 0 mm
23:34 19.6 °C 15.1 °C 1008 hPa WSW 6.4 km/h 20.9 km/h 75% 0 mm
23:39 19.5 °C 14.9 °C 1008 hPa SW 8 km/h 20.9 km/h 75% 0 mm
23:44 19.3 °C 15 °C 1008 hPa WSW 16.1 km/h 19.3 km/h 76% 0 mm
23:49 19.3 °C 14.9 °C 1008.4 hPa SW 9.7 km/h 24.1 km/h 76% 0 mm
23:54 19.2 °C 14.9 °C 1008.4 hPa SW 11.3 km/h 27.4 km/h 76% 0 mm
23:59 19.2 °C 14.9 °C 1008.4 hPa SW 9.7 km/h 27.4 km/h 76% 0 mm
Buffalo, New York, USA
Compliments of Weather Underground - 2.5 mb